This demonstration page uses our WeatherBlox Daily Observations layout. Learn more.

Left ArrowRight Arrow

Hourly Observations for February 4, 2019

Temp ( °F °C ) Dew Point ( °F °C ) Humidity (%) Winds ( mph kmh ) Pressure ( in mb ) Visibility ( mi km ) Precip ( " mm )
12:53 am 00:53 Clear 43 6.1 43 6.1 100 100 Calm 30.07 1018 9 14 0.00 0.00
1:53 am 01:53 Clear 41 5 41 5 100 100 Calm 30.06 1018 9 14 0.00 0.00
2:53 am 02:53 Clear with Mist and Fog 40 4.4 40 4.4 100 100 Calm 30.06 1018 6 10 0.00 0.00
3:53 am 03:53 Clear 40 4.4 40 4.4 100 100 Calm 30.05 1018 10 16 0.00 0.00
4:53 am 04:53 Clear 40 4.4 40 4.4 100 100 Calm 30.06 1018 10 16 0.00 0.00
5:53 am 05:53 Clear 38 3.3 38 3.3 100 100 Calm 30.07 1018 8 13 0.00 0.00
6:53 am 06:53 Clear 38 3.3 38 3.3 100 100 Calm 30.09 1019 8 13 0.00 0.00
7:53 am 07:53 Sunny with Mist and Fog 38 3.3 38 3.3 100 100 Calm 30.10 1019 6 10 0.00 0.00
8:27 am 08:27 Partly Cloudy 41 5 41 5 100 100 Calm 30.13 1020 8 13 0.00 0.00
8:36 am 08:36 Mostly Cloudy 42 5.6 42 5.6 100 100 Calm 30.13 1020 9 14 0.00 0.00
8:53 am 08:53 Cloudy with Mist and Fog 45 7.2 43 6.1 93 93 NE 5 7 30.10 1019 1 2 0.00 0.00
9:27 am 09:27 Cloudy with Mist and Fog 46 7.8 46 7.8 100 100 WNW 3 6 30.13 1020 1 2 0.00 0.00
9:34 am 09:34 Cloudy with Mist and Fog 46 7.8 46 7.8 100 100 W 3 6 30.13 1020 4 6 0.00 0.00
9:38 am 09:38 Cloudy with Mist and Fog 46 7.8 46 7.8 100 100 W 3 6 30.13 1020 2 3 0.00 0.00
9:53 am 09:53 Cloudy with Mist and Fog 47 8.3 47 8.3 100 100 Calm 30.12 1020 3 5 0.00 0.00
10:09 am 10:09 Partly Cloudy with Mist and Fog 50 10 48 8.9 93 93 Calm 30.13 1020 6 10 0.00 0.00
10:53 am 10:53 Cloudy 54 12.2 50 10 87 87 WSW 3 6 30.11 1020 10 16 0.00 0.00
11:53 am 11:53 Mostly Cloudy 56 13.3 51 10.6 84 84 Calm 30.11 1020 10 16 0.00 0.00
12:53 pm 12:53 Mostly Cloudy 61 16.1 52 11.1 72 72 Calm 30.07 1018 10 16 0.00 0.00
1:53 pm 13:53 Cloudy 63 17.2 53 11.7 70 70 SSW 3 6 30.04 1017 10 16 0.00 0.03
2:53 pm 14:53 Cloudy 64 17.8 53 11.7 68 68 WSW 6 9 30.02 1017 10 16 0.00 0.00
3:53 pm 15:53 Cloudy 64 17.8 53 11.7 68 68 SSW 5 7 30.01 1016 10 16 0.00 0.00
4:53 pm 16:53 Mostly Cloudy 66 18.9 54 12.2 65 65 SSW 5 7 30.01 1016 10 16 0.00 0.00
5:53 pm 17:53 Mostly Sunny 63 17.2 54 12.2 73 73 Calm 30.02 1017 10 16 0.00 0.00
6:53 pm 18:53 Cloudy 60 15.6 54 12.2 80 80 Calm 30.02 1017 10 16 0.00 0.00
7:53 pm 19:53 Partly Cloudy 57 13.9 53 11.7 87 87 Calm 30.04 1017 10 16 0.00 0.00
8:53 pm 20:53 Mostly Clear 54 12.2 53 11.7 97 97 Calm 30.04 1017 10 16 0.00 0.00
9:53 pm 21:53 Cloudy 54 12.2 53 11.7 97 97 Calm 30.05 1018 10 16 0.00 0.00
10:53 pm 22:53 Cloudy 55 12.8 53 11.7 93 93 Calm 30.05 1018 10 16 0.00 0.00
11:53 pm 23:53 Cloudy 56 13.3 54 12.2 93 93 S 3 6 30.05 1018 10 16 0.00 0.00

Powered by AerisWeather